GW3681 Weather Reports


Display with metric or nautical units.
time (UTC)temp
F
wind
direction
speed
MPH
gust
MPH
rain 1hr
in
rain 24hr
in
rain mn
in
humidity
%
barometer
mb
20260902065105 68 26 3.0 7.0 0.00 0.00 0.00 66 1017.9
20260902064604 68 1 3.0 7.0 0.00 0.00 0.00 66 1017.6
20260902064104 68 0 3.0 5.0 0.00 0.00 0.00 66 1017.6
20260902063604 67 9 3.0 5.0 0.00 0.00 0.00 67 1017.3
20260902063105 67 18 3.0 5.0 0.00 0.00 0.00 67 1017.3
20260902062605 68 338 2.0 5.0 0.00 0.00 0.00 66 1017.3
20260902062105 68 5 2.0 3.0 0.00 0.00 0.00 66 1017.6
20260902061605 68 7 1.0 3.0 0.00 0.00 0.00 66 1017.6
20260902061104 68 351 2.0 3.0 0.00 0.00 0.00 67 1017.3
20260902060604 67 3 1.0 3.0 0.00 0.00 0.00 67 1017.3
20260902055605 67 14 2.0 3.0 0.00 0.00 0.00 67 1017.3
20260902055104 68 2 2.0 3.0 0.00 0.00 0.00 67 1017.3
20260902054604 67 7 2.0 3.0 0.00 0.00 0.00 67 1017.3
20260902054105 67 353 2.0 3.0 0.00 0.00 0.00 67 1017.3
20260902053605 67 11 1.0 3.0 0.00 0.00 0.00 67 1017.3
20260902053104 68 4 1.0 5.0 0.00 0.00 0.00 67 1017.3
20260902052104 68 7 3.0 5.0 0.00 0.00 0.00 67 1017.3
20260902051604 68 3 2.0 6.0 0.00 0.00 0.00 67 1017.3
20260902051105 68 4 2.0 6.0 0.00 0.00 0.00 67 1017.3
20260902050104 68 7 3.0 6.0 0.00 0.00 0.00 67 1017.3
20260902045605 68 354 3.0 6.0 0.00 0.00 0.00 67 1017.3
20260902044105 68 356 2.0 5.0 0.00 0.00 0.00 68 1017.3
20260902043604 69 9 2.0 5.0 0.00 0.00 0.00 67 1016.9
20260902043104 69 5 2.0 3.0 0.00 0.00 0.00 67 1017.3
20260902042105 68 5 2.0 3.0 0.00 0.00 0.00 68 1017.3
20260902041604 68 2 0.0 3.0 0.00 0.00 0.00 67 1017.3
20260902041105 68 2 2.0 3.0 0.00 0.00 0.00 67 1017.3
20260902040604 68 353 2.0 3.0 0.00 0.00 0.00 67 1017.3
20260902040104 69 5 0.0 1.0 0.00 0.00 0.00 67 1017.3
20260902035605 69 350 0.0 0.0 0.00 0.00 0.00 67 1016.9
20260902034604 69 352 0.0 0.0 0.00 0.00 0.00 66 1016.9
20260902034104 69 344 0.0 0.0 0.00 0.00 0.00 66 1016.9
20260902033604 69 305 0.0 1.0 0.00 0.00 0.00 66 1016.9
20260902032604 69 345 0.0 0.0 0.00 0.00 0.00 67 1017.3
20260902031604 69 345 0.0 0.0 0.00 0.00 0.00 67 1016.9
20260902031105 69 355 0.0 0.0 0.00 0.00 0.00 67 1017.3
20260902030605 69 355 0.0 0.0 0.00 0.00 0.00 67 1017.3
20260902030104 69 356 0.0 0.0 0.00 0.00 0.00 67 1017.3
20260902025605 70 343 0.0 0.0 0.00 0.00 0.00 66 1017.3
20260902025104 70 350 0.0 0.0 0.00 0.00 0.00 65 1017.3
20260902024604 70 348 0.0 2.0 0.00 0.00 0.00 65 1017.6
20260902024105 70 9 1.0 2.0 0.00 0.00 0.00 65 1017.3
20260902023604 71 4 1.0 3.0 0.00 0.00 0.00 65 1017.6
20260902022605 71 16 3.0 6.0 0.00 0.00 0.00 65 1017.6
20260902022105 71 9 2.0 5.0 0.00 0.00 0.00 65 1017.6
20260902021604 70 30 2.0 3.0 0.00 0.00 0.00 65 1017.6
20260902021104 70 14 1.0 3.0 0.00 0.00 0.00 66 1017.6
20260902020105 70 351 0.0 2.0 0.00 0.00 0.00 67 1017.6
20260902015604 70 341 0.0 3.0 0.00 0.00 0.00 67 1017.6
20260902015104 70 12 1.0 3.0 0.00 0.00 0.00 67 1017.6
20260902013604 70 1 2.0 3.0 0.00 0.00 0.00 69 1017.6
20260902013104 70 350 0.0 0.0 0.00 0.00 0.00 69 1017.6
20260902012605 70 352 0.0 0.0 0.00 0.00 0.00 69 1017.6
20260902012105 70 350 0.0 1.0 0.00 0.00 0.00 69 1017.9
20260902011605 71 347 0.0 2.0 0.00 0.00 0.00 69 1017.6
20260902011104 70 351 1.0 2.0 0.00 0.00 0.00 70 1017.6
20260902010604 70 349 0.0 3.0 0.00 0.00 0.00 70 1017.3
20260902010105 70 3 2.0 3.0 0.00 0.00 0.00 71 1017.6
20260902005105 70 2 0.0 2.0 0.00 0.00 0.00 75 1017.3
20260902004605 69 350 1.0 3.0 0.00 0.00 0.00 75 1017.6
20260902004104 69 356 0.0 3.0 0.00 0.00 0.00 76 1017.6
20260902003604 69 1 0.0 1.0 0.00 0.00 0.00 76 1017.9
20260902003104 69 351 0.0 1.0 0.00 0.00 0.00 76 1017.9
20260902002605 69 0 1.0 2.0 0.00 0.00 0.00 77 1017.7
20260902002104 70 356 0.0 2.0 0.00 0.00 0.00 77 1017.8
20260902001605 70 350 0.0 0.0 0.00 0.00 0.00 77 1017.9
20260902001105 70 348 0.0 0.0 0.00 0.00 0.00 77 1017.9
20260902000105 70 349 0.0 0.0 0.00 0.00 0.00 77 1017.9
20260901235605 70 348 0.0 0.0 0.00 0.00 0.00 77 1017.9
20260901235105 70 347 0.0 0.0 0.00 0.00 0.00 77 1017.9
20260901234604 70 347 0.0 0.0 0.00 0.00 0.00 77 1017.9
20260901233604 71 345 0.0 0.0 0.00 0.00 0.00 77 1018.0
20260901232604 71 344 0.0 0.0 0.00 0.00 0.00 77 1017.9
20260901232104 71 341 0.0 0.0 0.00 0.00 0.00 77 1018.0
20260901231605 71 323 0.0 1.0 0.00 0.00 0.00 77 1018.3
20260901231105 71 273 0.0 1.0 0.00 0.00 0.00 77 1018.3
20260901230605 71 358 0.0 1.0 0.00 0.00 0.00 77 1018.3
20260901230105 71 19 0.0 1.0 0.00 0.00 0.00 76 1017.9
20260901225605 71 264 1.0 2.0 0.00 0.00 0.00 76 1018.3
20260901225104 71 158 1.0 2.0 0.00 0.00 0.00 75 1017.9
20260901224605 71 151 1.0 2.0 0.00 0.00 0.00 75 1018.3
20260901224105 71 273 0.0 0.0 0.00 0.00 0.00 75 1018.3
20260901223604 72 2 0.0 0.0 0.00 0.00 0.00 75 1018.3
20260901223104 72 347 0.0 0.0 0.00 0.00 0.00 74 1017.9
20260901222604 72 167 0.0 1.0 0.00 0.00 0.00 74 1018.3
20260901221605 72 271 0.0 1.0 0.00 0.00 0.00 72 1017.9
20260901221105 72 223 0.0 1.0 0.00 0.00 0.00 71 1017.9
20260901220605 72 329 0.0 1.0 0.00 0.00 0.00 72 1018.3
20260901220104 72 89 0.0 1.0 0.00 0.00 0.00 71 1018.3
20260901215604 72 1 0.0 2.0 0.00 0.00 0.00 72 1018.3
20260901215104 72 204 2.0 2.0 0.00 0.00 0.00 71 1018.3
20260901214604 72 199 1.0 1.0 0.00 0.00 0.00 71 1017.9
20260901213605 72 211 0.0 1.0 0.00 0.00 0.00 70 1018.3
20260901213104 72 202 0.0 1.0 0.00 0.00 0.00 69 1018.3
20260901212605 72 330 0.0 0.0 0.00 0.00 0.00 69 1018.3
20260901212104 72 351 0.0 0.0 0.00 0.00 0.00 69 1018.3
20260901211604 73 7 0.0 2.0 0.00 0.00 0.00 70 1018.3
20260901211104 73 217 0.0 2.0 0.00 0.00 0.00 70 1018.3
20260901210605 73 102 0.0 1.0 0.00 0.00 0.00 69 1017.9
20260901205604 73 169 0.0 1.0 0.00 0.00 0.00 67 1018.3
20260901205105 73 184 1.0 1.0 0.00 0.00 0.00 65 1017.9
20260901204604 73 275 0.0 0.0 0.00 0.00 0.00 64 1017.9
20260901204104 73 331 0.0 1.0 0.00 0.00 0.00 65 1017.9
20260901203605 72 335 0.0 1.0 0.00 0.00 0.00 65 1017.9
20260901203104 72 336 0.0 1.0 0.00 0.00 0.00 66 1017.6
20260901202604 73 325 0.0 1.0 0.00 0.00 0.00 67 1017.3
20260901202105 73 323 0.0 1.0 0.00 0.00 0.00 67 1017.6
20260901201605 73 279 0.0 0.0 0.00 0.00 0.00 66 1017.3
20260901201105 73 333 0.0 1.0 0.00 0.00 0.00 66 1017.3
20260901200604 73 330 0.0 1.0 0.00 0.00 0.00 65 1017.3
20260901200105 73 326 0.0 1.0 0.00 0.00 0.00 64 1017.3
20260901195605 73 273 0.0 1.0 0.00 0.00 0.00 64 1017.3
20260901195104 73 336 0.0 1.0 0.00 0.00 0.00 65 1016.9
20260901194604 73 341 0.0 2.0 0.00 0.00 0.00 64 1016.9
20260901194105 74 347 1.0 2.0 0.00 0.00 0.00 62 1016.9
20260901193604 73 338 1.0 3.0 0.00 0.00 0.00 63 1016.6
20260901193104 73 348 0.0 3.0 0.00 0.00 0.00 64 1016.3
20260901192105 73 281 3.0 5.0 0.00 0.00 0.00 65 1016.3
20260901191604 73 304 1.0 5.0 0.00 0.00 0.00 65 1016.3
20260901191105 73 344 0.0 2.0 0.00 0.00 0.00 65 1016.3
20260901190604 73 307 1.0 3.0 0.00 0.00 0.00 65 1015.9
20260901190109 73 331 2.0 3.0 0.00 0.00 0.00 66 1015.9
20260901185605 74 240 1.0 3.0 0.00 0.00 0.00 66 1015.9
20260901185104 74 303 1.0 5.0 0.00 0.00 0.00 65 1015.9
20260901184105 74 273 1.0 5.0 0.00 0.00 0.00 64 1015.9
20260901183607 74 295 1.0 3.0 0.00 0.00 0.00 64 1015.9
20260901183104 74 318 1.0 5.0 0.00 0.00 0.00 65 1015.6
20260901182604 74 306 1.0 5.0 0.00 0.00 0.00 65 1015.8
20260901182105 74 247 1.0 5.0 0.00 0.00 0.00 64 1015.9
20260901181604 75 278 3.0 6.0 0.00 0.00 0.00 62 1015.9
20260901181104 75 286 2.0 6.0 0.00 0.00 0.00 61 1015.9
20260901180604 76 328 1.0 6.0 0.00 0.00 0.00 61 1015.9
20260901175604 76 302 4.0 7.0 0.00 0.00 0.00 60 1015.8
20260901175105 76 332 4.0 8.0 0.00 0.00 0.00 60 1015.7
20260901174105 76 248 3.0 7.0 0.00 0.00 0.00 62 1015.6
20260901173605 77 262 2.0 6.0 0.00 0.00 0.00 63 1015.6
20260901173104 76 274 2.0 6.0 0.00 0.00 0.00 63 1015.6
20260901172604 77 257 2.0 5.0 0.00 0.00 0.00 62 1015.6
20260901172105 77 311 1.0 5.0 0.00 0.00 0.00 61 1015.9
20260901171604 77 337 1.0 5.0 0.00 0.00 0.00 61 1015.9
20260901171105 77 262 1.0 6.0 0.00 0.00 0.00 61 1015.6
20260901170605 77 230 3.0 6.0 0.00 0.00 0.00 60 1015.6
20260901170104 77 221 3.0 7.0 0.00 0.00 0.00 60 1015.9
20260901165604 78 270 3.0 7.0 0.00 0.00 0.00 60 1015.6
20260901165105 78 268 2.0 6.0 0.00 0.00 0.00 59 1015.6
20260901164605 78 255 2.0 6.0 0.00 0.00 0.00 59 1015.6
20260901164104 79 251 3.0 6.0 0.00 0.00 0.00 58 1015.9
20260901163605 78 299 3.0 6.0 0.00 0.00 0.00 58 1015.9
20260901163104 79 306 0.0 6.0 0.00 0.00 0.00 59 1015.6
20260901162605 80 339 0.0 3.0 0.00 0.00 0.00 59 1015.9
20260901162104 80 292 1.0 5.0 0.00 0.00 0.00 59 1015.9
20260901161604 79 244 2.0 6.0 0.00 0.00 0.00 58 1015.9
20260901161105 79 299 2.0 6.0 0.00 0.00 0.00 58 1015.9
20260901160605 80 314 2.0 6.0 0.00 0.00 0.00 57 1015.9
20260901160105 80 343 1.0 3.0 0.00 0.00 0.00 58 1016.3
20260901155605 80 326 1.0 6.0 0.00 0.00 0.00 59 1015.9
20260901155104 80 213 3.0 6.0 0.00 0.00 0.00 59 1016.3
20260901154605 81 265 2.0 7.0 0.00 0.00 0.00 57 1016.3
20260901153604 81 314 3.0 7.0 0.00 0.00 0.00 60 1015.9
20260901153105 82 295 2.0 6.0 0.00 0.00 0.00 57 1016.3
20260901152604 84 244 3.0 6.0 0.00 0.00 0.00 57 1016.3
20260901152105 85 264 1.0 5.0 0.00 0.00 0.00 50 1016.3
20260901151604 84 69 1.0 7.0 0.00 0.00 0.00 46 1016.3
20260901151105 85 245 3.0 7.0 0.00 0.00 0.00 50 1016.3
20260901150605 85 251 0.0 3.0 0.00 0.00 0.00 48 1016.3
20260901150105 85 243 2.0 3.0 0.00 0.00 0.00 46 1016.3
20260901145604 84 290 1.0 3.0 0.00 0.00 0.00 48 1016.6
20260901145104 85 217 1.0 2.0 0.00 0.00 0.00 49 1016.3
20260901144605 85 174 1.0 3.0 0.00 0.00 0.00 48 1016.3
20260901143605 85 206 1.0 5.0 0.00 0.00 0.00 48 1016.3
20260901143104 86 196 2.0 3.0 0.00 0.00 0.00 45 1016.3
20260901142605 85 226 1.0 3.0 0.00 0.00 0.00 45 1016.3
20260901142104 86 269 0.0 3.0 0.00 0.00 0.00 46 1016.6
20260901141605 86 211 2.0 5.0 0.00 0.00 0.00 47 1016.6
20260901141104 86 210 2.0 5.0 0.00 0.00 0.00 47 1016.6
20260901140605 85 256 1.0 5.0 0.00 0.00 0.00 48 1016.6
20260901140105 85 277 3.0 5.0 0.00 0.00 0.00 47 1016.6
20260901135104 85 244 1.0 6.0 0.00 0.00 0.00 47 1016.6
20260901134605 85 257 3.0 6.0 0.00 0.00 0.00 46 1016.6
20260901134104 85 260 1.0 6.0 0.00 0.00 0.00 46 1016.9
20260901133605 85 260 1.0 5.0 0.00 0.00 0.00 45 1016.9
20260901133104 85 239 1.0 6.0 0.00 0.00 0.00 45 1016.9
20260901132605 84 236 3.0 6.0 0.00 0.00 0.00 44 1016.9
20260901131605 85 208 1.0 5.0 0.00 0.00 0.00 42 1017.3
20260901131104 85 320 1.0 5.0 0.00 0.00 0.00 45 1017.3
20260901130605 85 271 3.0 6.0 0.00 0.00 0.00 44 1017.3
20260901130105 84 264 2.0 6.0 0.00 0.00 0.00 45 1017.3
20260901125605 84 249 1.0 6.0 0.00 0.00 0.00 47 1016.9
20260901125104 83 294 2.0 6.0 0.00 0.00 0.00 47 1017.3
20260901124605 84 267 1.0 5.0 0.00 0.00 0.00 47 1017.3
20260901123605 84 255 0.0 5.0 0.00 0.00 0.00 47 1017.3
20260901123104 84 237 2.0 5.0 0.00 0.00 0.00 47 1017.3
20260901122605 84 223 1.0 6.0 0.00 0.00 0.00 46 1017.3
20260901122104 83 232 2.0 7.0 0.00 0.00 0.00 48 1017.3
20260901121604 82 296 3.0 7.0 0.00 0.00 0.00 51 1016.9
20260901121104 83 256 1.0 5.0 0.00 0.00 0.00 52 1016.9
20260901120605 83 228 1.0 5.0 0.00 0.00 0.00 48 1016.9
20260901120104 83 237 2.0 5.0 0.00 0.00 0.00 49 1017.3
20260901115604 83 305 1.0 6.0 0.00 0.00 0.00 51 1017.3
20260901115104 83 237 3.0 6.0 0.00 0.00 0.00 49 1017.3
20260901114605 83 250 2.0 7.0 0.00 0.00 0.00 45 1017.3
20260901114104 83 246 3.0 8.0 0.00 0.00 0.00 44 1017.3
20260901113605 83 236 2.0 8.0 0.00 0.00 0.00 44 1017.3
20260901113104 83 253 2.0 7.0 0.00 0.00 0.00 44 1017.3
20260901112604 84 212 2.0 6.0 0.00 0.00 0.00 45 1017.3
20260901112105 84 321 6.0 8.0 0.00 0.00 0.00 44 1017.3
20260901111604 84 245 2.0 8.0 0.00 0.00 0.00 45 1017.3
20260901110605 84 325 3.0 5.0 0.00 0.00 0.00 41 1017.5
20260901110105 84 332 1.0 5.0 0.00 0.00 0.00 40 1017.6
20260901105604 84 6 1.0 3.0 0.00 0.00 0.00 40 1017.6
20260901105105 83 344 0.0 3.0 0.00 0.00 0.00 41 1017.6
20260901104605 83 346 0.0 3.0 0.00 0.00 0.00 41 1017.8
20260901104104 83 358 1.0 3.0 0.00 0.00 0.00 41 1017.8
20260901103605 82 349 1.0 3.0 0.00 0.00 0.00 41 1017.6
20260901103105 82 338 1.0 6.0 0.00 0.00 0.00 42 1017.6
20260901102604 81 11 2.0 6.0 0.00 0.00 0.00 43 1017.6
20260901102105 81 10 3.0 6.0 0.00 0.00 0.00 43 1017.6
20260901101605 80 330 2.0 6.0 0.00 0.00 0.00 44 1017.6
20260901101104 80 346 2.0 6.0 0.00 0.00 0.00 44 1017.3
20260901100605 79 327 3.0 7.0 0.00 0.00 0.00 46 1017.3
20260901095104 78 332 3.0 7.0 0.00 0.00 0.00 48 1017.3
20260901094604 78 358 3.0 7.0 0.00 0.00 0.00 48 1017.6
20260901094104 78 3 3.0 7.0 0.00 0.00 0.00 49 1017.3
20260901092604 76 346 1.0 3.0 0.00 0.00 0.00 52 1017.3
20260901092105 75 349 1.0 5.0 0.00 0.00 0.00 53 1017.6
20260901091604 75 339 2.0 5.0 0.00 0.00 0.00 53 1017.6
20260901091104 75 346 2.0 3.0 0.00 0.00 0.00 53 1017.6
20260901090604 74 32 1.0 6.0 0.00 0.00 0.00 54 1017.6
20260901090105 74 351 2.0 8.0 0.00 0.00 0.00 55 1017.6
20260901085605 73 44 3.0 8.0 0.00 0.00 0.00 55 1017.6
20260901085104 73 341 3.0 7.0 0.00 0.00 0.00 56 1017.6
20260901084604 73 44 3.0 7.0 0.00 0.00 0.00 56 1017.3
20260901084104 72 353 1.0 6.0 0.00 0.00 0.00 57 1017.3
20260901083605 72 7 5.0 8.0 0.00 0.00 0.00 58 1017.3
20260901083105 71 4 5.0 8.0 0.00 0.00 0.00 58 1017.3
20260901082604 71 22 7.0 9.0 0.00 0.00 0.00 59 1017.3
20260901082104 71 343 5.0 9.0 0.00 0.00 0.00 60 1017.3
20260901081105 70 353 3.0 9.0 0.00 0.00 0.00 60 1017.3
20260901080604 70 358 5.0 13.0 0.00 0.00 0.00 61 1017.3
20260901080104 69 12 8.0 13.0 0.00 0.00 0.00 62 1016.9
20260901075604 69 5 7.0 13.0 0.00 0.00 0.00 62 1016.9
20260901075105 68 6 7.0 10.0 0.00 0.00 0.00 63 1017.3
20260901074604 68 1 6.0 10.0 0.00 0.00 0.00 64 1017.3
20260901074105 67 6 3.0 13.0 0.00 0.00 0.00 64 1016.9
20260901073604 67 7 7.0 13.0 0.00 0.00 0.00 65 1016.6
20260901073105 67 0 3.0 9.0 0.00 0.00 0.00 66 1016.9
20260901072605 66 338 3.0 9.0 0.00 0.00 0.00 66 1016.6
20260901072105 66 349 2.0 7.0 0.00 0.00 0.00 67 1016.6
20260901071604 66 30 1.0 7.0 0.00 0.00 0.00 67 1016.6
20260901071104 66 0 2.0 7.0 0.00 0.00 0.00 67 1016.9
20260901070604 65 348 3.0 8.0 0.00 0.00 0.00 68 1016.6